EFW4DL LEIB-EGKK

Flight info

Callsign EFW4DL
Flight time 1h 57m
Altitude 36000
Route EPAMA N856 UMURE DCT XIKEN DCT KARES DCT ARBEK DCT REBUL DCT USKAR DCT MOPAS DCT GIROM DCT GONUP DCT MANAK DCT EPAPU DCT RINSO DCT EKRAS DCT UPALO DCT REVTU DCT ODREP UP88 VASUX
Aircraft A321/M-SDE3FGHIRWY/LB1

Departure

Time 2026-05-06 17:26
Airport Ibiza Airport (LEIB)

Arrival

Time 2026-05-06 19:23
Airport London Gatwick Airport (EGKK)
Time Latitude Longitude Altitude Speed Heading
2026-05-06 16:55 38.87461 1.36663 9 ft 0 kts 15°
2026-05-06 17:18 38.87466 1.36673 9 ft 2 kts 65°
2026-05-06 17:18 38.87443 1.36699 8 ft 6 kts 148°
2026-05-06 17:18 38.87415 1.36743 8 ft 6 kts 95°
2026-05-06 17:19 38.87399 1.36799 8 ft 8 kts 143°
2026-05-06 17:19 38.87344 1.36834 8 ft 10 kts 154°
2026-05-06 17:19 38.87284 1.36854 9 ft 10 kts 209°
2026-05-06 17:19 38.87246 1.36768 9 ft 11 kts 242°
2026-05-06 17:20 38.87212 1.36684 9 ft 10 kts 243°
2026-05-06 17:20 38.87180 1.36604 8 ft 11 kts 243°
2026-05-06 17:20 38.87145 1.36515 9 ft 12 kts 241°
2026-05-06 17:20 38.87104 1.36420 8 ft 13 kts 241°
2026-05-06 17:21 38.87062 1.36316 8 ft 14 kts 243°
2026-05-06 17:21 38.87015 1.36206 8 ft 14 kts 242°
2026-05-06 17:21 38.86967 1.36089 8 ft 15 kts 242°
2026-05-06 17:21 38.86917 1.35967 9 ft 16 kts 242°
2026-05-06 17:22 38.86867 1.35847 8 ft 10 kts 238°
2026-05-06 17:22 38.86807 1.35830 9 ft 10 kts 154°
2026-05-06 17:22 38.86788 1.35842 7 ft 0 kts 152°
2026-05-06 17:23 38.86782 1.35846 7 ft 4 kts 152°
2026-05-06 17:23 38.86740 1.35874 5 ft 9 kts 153°
2026-05-06 17:24 38.86710 1.35923 6 ft 7 kts 73°
2026-05-06 17:24 38.86717 1.35942 6 ft 0 kts 64°
2026-05-06 17:24 38.86719 1.35945 6 ft 0 kts 64°
2026-05-06 17:25 38.86729 1.35971 6 ft 17 kts 62°
2026-05-06 17:25 38.86908 1.36403 5 ft 90 kts 62°
2026-05-06 17:25 38.87297 1.37343 11 ft 146 kts 62°
2026-05-06 17:25 38.87811 1.38596 403 ft 163 kts 65°
2026-05-06 17:26 38.88298 1.39931 1044 ft 167 kts 75°
2026-05-06 17:26 38.88541 1.41416 1474 ft 178 kts 78°
2026-05-06 17:26 38.88825 1.43063 1716 ft 199 kts 77°
2026-05-06 17:26 38.89143 1.44832 2118 ft 207 kts 77°
2026-05-06 17:27 38.89472 1.46636 2726 ft 208 kts 77°
2026-05-06 17:27 38.89806 1.48464 3301 ft 213 kts 77°
2026-05-06 17:27 38.90146 1.50329 3864 ft 215 kts 77°
2026-05-06 17:27 38.90488 1.52210 4462 ft 218 kts 77°
2026-05-06 17:28 38.90991 1.54056 5009 ft 223 kts 62°
2026-05-06 17:28 38.92012 1.55620 5342 ft 239 kts 43°
2026-05-06 17:28 38.93315 1.57113 5530 ft 263 kts 42°
2026-05-06 17:28 38.94711 1.58706 5921 ft 274 kts 42°
2026-05-06 17:29 38.96137 1.60334 5990 ft 274 kts 42°
2026-05-06 17:29 38.97581 1.61985 6001 ft 274 kts 42°
2026-05-06 17:29 38.99008 1.63609 5998 ft 274 kts 39°
2026-05-06 17:29 39.00644 1.64866 6332 ft 277 kts 22°
2026-05-06 17:30 39.02503 1.65517 7059 ft 277 kts
2026-05-06 17:30 39.04427 1.65793 7766 ft 279 kts
2026-05-06 17:30 39.06363 1.66060 8465 ft 281 kts
2026-05-06 17:30 39.08320 1.66287 9158 ft 283 kts 358°
2026-05-06 17:31 39.10240 1.66020 9831 ft 283 kts 344°
2026-05-06 17:31 39.12095 1.65156 10312 ft 291 kts 334°
2026-05-06 17:31 39.14018 1.64077 10441 ft 312 kts 334°
2026-05-06 17:31 39.16096 1.62903 10576 ft 331 kts 334°
2026-05-06 17:32 39.18236 1.61698 10986 ft 339 kts 334°
2026-05-06 17:32 39.20417 1.60475 11534 ft 344 kts 334°
2026-05-06 17:32 39.22623 1.59243 12087 ft 348 kts 335°
2026-05-06 17:32 39.24983 1.58350 12480 ft 359 kts 346°
2026-05-06 17:33 39.27445 1.57681 13001 ft 364 kts 346°
2026-05-06 17:33 39.29899 1.57016 13537 ft 368 kts 345°
2026-05-06 17:33 39.32416 1.56334 14036 ft 371 kts 345°
2026-05-06 17:33 39.34986 1.55638 14550 ft 374 kts 345°
2026-05-06 17:34 39.37544 1.54945 15061 ft 377 kts 345°
2026-05-06 17:34 39.40118 1.54248 15566 ft 379 kts 345°
2026-05-06 17:34 39.42713 1.53544 16068 ft 382 kts 344°
2026-05-06 17:34 39.45324 1.52835 16565 ft 385 kts 344°
2026-05-06 17:35 39.47956 1.52122 17077 ft 387 kts 344°
2026-05-06 17:35 39.50602 1.51406 17571 ft 390 kts 344°
2026-05-06 17:35 39.53268 1.50685 18040 ft 393 kts 344°
2026-05-06 17:36 39.58654 1.49210 18858 ft 398 kts 343°
2026-05-06 17:36 39.61367 1.48465 19252 ft 400 kts 343°
2026-05-06 17:36 39.64101 1.47716 19652 ft 403 kts 343°
2026-05-06 17:36 39.66854 1.46963 20051 ft 405 kts 343°
2026-05-06 17:37 39.69623 1.46206 20440 ft 408 kts 343°
2026-05-06 17:37 39.72403 1.45443 20825 ft 410 kts 343°
2026-05-06 17:37 39.75201 1.44673 21207 ft 412 kts 343°
2026-05-06 17:37 39.78018 1.43901 21587 ft 415 kts 343°
2026-05-06 17:38 39.80853 1.43127 21983 ft 418 kts 343°
2026-05-06 17:38 39.83703 1.42347 22341 ft 420 kts 343°
2026-05-06 17:38 39.86573 1.41559 22707 ft 423 kts 343°
2026-05-06 17:38 39.89465 1.40759 23072 ft 425 kts 343°
2026-05-06 17:39 39.92365 1.39956 23433 ft 428 kts 343°
2026-05-06 17:39 39.95290 1.39145 23739 ft 430 kts 342°
2026-05-06 17:39 39.98225 1.38333 24048 ft 433 kts 342°
2026-05-06 17:39 40.01176 1.37516 24353 ft 435 kts 342°
2026-05-06 17:40 40.04145 1.36693 24672 ft 437 kts 342°
2026-05-06 17:40 40.07129 1.35868 24958 ft 439 kts 342°
2026-05-06 17:40 40.10123 1.35039 25246 ft 441 kts 342°
2026-05-06 17:40 40.13139 1.34203 25533 ft 444 kts 342°
2026-05-06 17:41 40.16169 1.33361 25820 ft 446 kts 342°
2026-05-06 17:41 40.19206 1.32517 26109 ft 448 kts 341°
2026-05-06 17:41 40.22266 1.31664 26390 ft 450 kts 341°
2026-05-06 17:41 40.25332 1.30810 26700 ft 452 kts 341°
2026-05-06 17:42 40.28415 1.29951 27004 ft 454 kts 341°
2026-05-06 17:42 40.31514 1.29090 27286 ft 456 kts 341°
2026-05-06 17:42 40.34622 1.28228 27557 ft 459 kts 341°
2026-05-06 17:42 40.37814 1.27662 27817 ft 466 kts 347°
2026-05-06 17:43 40.41050 1.27229 28065 ft 468 kts 347°
2026-05-06 17:43 40.43207 1.26941 28231 ft 470 kts 347°
2026-05-06 17:43 40.46463 1.26504 28470 ft 472 kts 347°
2026-05-06 17:43 40.49731 1.26062 28746 ft 473 kts 346°
2026-05-06 17:44 40.53013 1.25615 28978 ft 474 kts 346°
2026-05-06 17:44 40.56299 1.25163 29184 ft 476 kts 346°
2026-05-06 17:44 40.59597 1.24708 29400 ft 477 kts 346°
2026-05-06 17:44 40.62901 1.24258 29695 ft 477 kts 346°
2026-05-06 17:45 40.66205 1.23812 29975 ft 477 kts 346°
2026-05-06 17:45 40.69503 1.23367 30237 ft 476 kts 346°
2026-05-06 17:45 40.72839 1.22916 30499 ft 475 kts 346°
2026-05-06 17:45 40.76085 1.22477 30759 ft 474 kts 346°
2026-05-06 17:46 40.79367 1.22031 31012 ft 473 kts 346°
2026-05-06 17:46 40.82635 1.21584 31281 ft 472 kts 346°
2026-05-06 17:46 40.85903 1.21132 31543 ft 471 kts 346°
2026-05-06 17:46 40.89164 1.20680 31808 ft 470 kts 346°
2026-05-06 17:47 40.92410 1.20231 32116 ft 469 kts 346°
2026-05-06 17:47 40.95651 1.19782 32398 ft 467 kts 346°
2026-05-06 17:47 40.98885 1.19335 32659 ft 467 kts 346°
2026-05-06 17:47 41.02113 1.18892 32909 ft 466 kts 346°
2026-05-06 17:48 41.05326 1.18449 33156 ft 465 kts 346°
2026-05-06 17:48 41.08548 1.18003 33396 ft 464 kts 346°
2026-05-06 17:48 41.11801 1.17551 33635 ft 464 kts 346°
2026-05-06 17:48 41.14968 1.17113 33888 ft 463 kts 346°
2026-05-06 17:49 41.18215 1.16702 34083 ft 464 kts 347°
2026-05-06 17:49 41.21439 1.16353 34260 ft 465 kts 348°
2026-05-06 17:49 41.24661 1.16038 34435 ft 465 kts 348°
2026-05-06 17:49 41.27888 1.15734 34606 ft 465 kts 348°
2026-05-06 17:50 41.31116 1.15423 34773 ft 465 kts 348°
2026-05-06 17:50 41.34337 1.15102 34974 ft 465 kts 348°
2026-05-06 17:50 41.37557 1.14770 35143 ft 464 kts 348°
2026-05-06 17:50 41.40774 1.14431 35338 ft 463 kts 349°
2026-05-06 17:51 41.43988 1.14087 35531 ft 463 kts 349°
2026-05-06 17:51 41.47195 1.13741 35700 ft 462 kts 349°
2026-05-06 17:51 41.50398 1.13396 35871 ft 462 kts 349°
2026-05-06 17:51 41.53601 1.13054 35908 ft 462 kts 349°
2026-05-06 17:52 41.60020 1.12382 35903 ft 462 kts 349°
2026-05-06 17:52 41.66421 1.11715 35915 ft 461 kts 349°
2026-05-06 17:53 41.72817 1.11039 35932 ft 461 kts 349°
2026-05-06 17:53 41.79223 1.10354 35962 ft 461 kts 349°
2026-05-06 17:54 41.85611 1.09666 35972 ft 461 kts 349°
2026-05-06 17:54 41.92005 1.08980 35980 ft 461 kts 349°
2026-05-06 17:55 41.98398 1.08302 35998 ft 461 kts 349°
2026-05-06 17:55 42.04786 1.07619 35984 ft 461 kts 349°
2026-05-06 17:56 42.11176 1.06929 35969 ft 460 kts 349°
2026-05-06 17:56 42.17566 1.06238 35955 ft 461 kts 349°
2026-05-06 17:57 42.23953 1.05553 35955 ft 460 kts 350°
2026-05-06 17:57 42.30340 1.04869 35950 ft 460 kts 350°
2026-05-06 17:58 42.36722 1.04179 35951 ft 460 kts 350°
2026-05-06 17:58 42.43107 1.03484 35966 ft 460 kts 350°
2026-05-06 17:59 42.49481 1.02785 35974 ft 459 kts 350°
2026-05-06 17:59 42.55846 1.02086 35989 ft 459 kts 350°
2026-05-06 18:00 42.62212 1.01394 36019 ft 459 kts 350°
2026-05-06 18:00 42.68571 1.00697 36010 ft 458 kts 350°
2026-05-06 18:01 42.74934 1.00009 36018 ft 458 kts 350°
2026-05-06 18:01 42.81137 0.98491 36023 ft 451 kts 340°
2026-05-06 18:02 42.87216 0.96382 36025 ft 451 kts 340°
2026-05-06 18:02 42.93299 0.94283 36024 ft 451 kts 340°
2026-05-06 18:03 42.99383 0.92190 36026 ft 451 kts 341°
2026-05-06 18:03 43.05467 0.90084 36034 ft 451 kts 341°
2026-05-06 18:04 43.11541 0.87960 36022 ft 450 kts 341°
2026-05-06 18:04 43.17620 0.85845 36019 ft 451 kts 341°
2026-05-06 18:05 43.23743 0.83715 36030 ft 451 kts 341°
2026-05-06 18:05 43.29779 0.81604 36018 ft 450 kts 341°
2026-05-06 18:06 43.35846 0.79480 36014 ft 450 kts 341°
2026-05-06 18:06 43.41919 0.77358 36013 ft 450 kts 341°
2026-05-06 18:07 43.47882 0.74860 36028 ft 445 kts 333°
2026-05-06 18:07 43.53567 0.71496 36019 ft 444 kts 333°
2026-05-06 18:08 43.59244 0.68148 36017 ft 444 kts 333°
2026-05-06 18:08 43.64922 0.64803 36023 ft 443 kts 333°
2026-05-06 18:09 43.70629 0.61436 36014 ft 443 kts 333°
2026-05-06 18:09 43.76290 0.58081 36012 ft 442 kts 333°
2026-05-06 18:10 43.81907 0.54740 36009 ft 442 kts 333°
2026-05-06 18:10 43.87560 0.51383 36014 ft 442 kts 334°
2026-05-06 18:11 43.93217 0.48017 36006 ft 442 kts 334°
2026-05-06 18:11 43.98865 0.44634 36002 ft 442 kts 334°
2026-05-06 18:12 44.04508 0.41256 36013 ft 442 kts 334°
2026-05-06 18:12 44.10156 0.37873 35998 ft 442 kts 334°
2026-05-06 18:13 44.15828 0.34455 36002 ft 441 kts 334°
2026-05-06 18:13 44.21422 0.31081 36002 ft 441 kts 334°
2026-05-06 18:14 44.27052 0.27686 36004 ft 441 kts 334°
2026-05-06 18:14 44.32679 0.24280 36005 ft 441 kts 334°
2026-05-06 18:15 44.38303 0.20868 36003 ft 440 kts 334°
2026-05-06 18:15 44.43920 0.17458 36009 ft 441 kts 334°
2026-05-06 18:16 44.49548 0.14035 36004 ft 441 kts 334°
2026-05-06 18:16 44.55163 0.10614 35998 ft 440 kts 334°
2026-05-06 18:17 44.60777 0.07181 35995 ft 440 kts 334°
2026-05-06 18:17 44.66392 0.03743 35999 ft 440 kts 334°
2026-05-06 18:18 44.72007 0.00293 35990 ft 440 kts 334°
2026-05-06 18:18 44.77612 -0.03159 35987 ft 440 kts 334°
2026-05-06 18:19 44.83211 -0.06610 35994 ft 439 kts 334°
2026-05-06 18:19 44.88809 -0.10071 35989 ft 439 kts 334°
2026-05-06 18:20 44.94394 -0.13534 35989 ft 439 kts 334°
2026-05-06 18:20 44.99979 -0.16998 35997 ft 439 kts 334°
2026-05-06 18:21 45.05569 -0.20468 35992 ft 439 kts 334°
2026-05-06 18:21 45.11155 -0.23951 35989 ft 439 kts 334°
2026-05-06 18:22 45.15832 -0.26874 35983 ft 439 kts 334°
2026-05-06 18:22 45.21417 -0.30373 35991 ft 439 kts 334°
2026-05-06 18:23 45.27002 -0.33877 35988 ft 439 kts 334°
2026-05-06 18:23 45.32593 -0.37385 35988 ft 439 kts 334°
2026-05-06 18:24 45.38179 -0.40906 35989 ft 439 kts 334°
2026-05-06 18:24 45.43766 -0.44431 35995 ft 439 kts 334°
2026-05-06 18:25 45.49351 -0.47967 36000 ft 439 kts 334°
2026-05-06 18:25 45.54930 -0.51496 35991 ft 439 kts 334°
2026-05-06 18:26 45.60510 -0.55038 35993 ft 439 kts 334°
2026-05-06 18:26 45.66088 -0.58590 35995 ft 439 kts 334°
2026-05-06 18:27 45.71661 -0.62154 35987 ft 439 kts 334°
2026-05-06 18:27 45.77234 -0.65720 35994 ft 439 kts 334°
2026-05-06 18:28 45.82808 -0.69289 35988 ft 439 kts 334°
2026-05-06 18:28 45.88383 -0.72859 35987 ft 439 kts 334°
2026-05-06 18:29 45.93953 -0.76433 35994 ft 438 kts 334°
2026-05-06 18:29 45.99519 -0.80024 35990 ft 438 kts 334°
2026-05-06 18:30 46.05076 -0.83634 35994 ft 439 kts 334°
2026-05-06 18:30 46.10643 -0.87250 35997 ft 439 kts 334°
2026-05-06 18:31 46.16207 -0.90861 35999 ft 439 kts 334°
2026-05-06 18:31 46.21845 -0.94261 35998 ft 440 kts 342°
2026-05-06 18:32 46.27831 -0.96177 36001 ft 441 kts 347°
2026-05-06 18:32 46.33836 -0.98006 35997 ft 441 kts 347°
2026-05-06 18:33 46.39853 -0.99853 36006 ft 442 kts 347°
2026-05-06 18:33 46.45864 -1.01708 36001 ft 442 kts 347°
2026-05-06 18:34 46.51876 -1.03567 35998 ft 442 kts 347°
2026-05-06 18:34 46.57881 -1.05429 36008 ft 441 kts 347°
2026-05-06 18:35 46.63895 -1.07283 36000 ft 441 kts 347°
2026-05-06 18:35 46.69901 -1.09146 35997 ft 441 kts 347°
2026-05-06 18:36 46.75902 -1.11019 35999 ft 441 kts 347°
2026-05-06 18:36 46.81904 -1.12886 36001 ft 441 kts 347°
2026-05-06 18:37 46.87912 -1.14765 35998 ft 441 kts 347°
2026-05-06 18:37 46.93923 -1.16641 36001 ft 441 kts 347°
2026-05-06 18:38 46.99927 -1.18525 36007 ft 442 kts 347°
2026-05-06 18:38 47.05944 -1.20420 36006 ft 442 kts 347°
2026-05-06 18:39 47.11955 -1.22316 36009 ft 442 kts 347°
2026-05-06 18:40 47.20976 -1.25179 36010 ft 442 kts 347°
2026-05-06 18:40 47.26983 -1.27082 36011 ft 442 kts 347°
2026-05-06 18:41 47.32996 -1.28987 36007 ft 442 kts 347°
2026-05-06 18:41 47.38993 -1.30903 36013 ft 441 kts 347°
2026-05-06 18:42 47.44993 -1.32826 36014 ft 441 kts 347°
2026-05-06 18:42 47.50988 -1.34749 36011 ft 441 kts 347°
2026-05-06 18:43 47.56987 -1.36681 36009 ft 441 kts 347°
2026-05-06 18:43 47.62983 -1.38607 36012 ft 441 kts 347°
2026-05-06 18:44 47.68975 -1.40533 36008 ft 441 kts 347°
2026-05-06 18:44 47.75075 -1.41491 36007 ft 442 kts 356°
2026-05-06 18:45 47.81224 -1.41949 36011 ft 442 kts 356°
2026-05-06 18:45 47.87371 -1.42417 36012 ft 442 kts 356°
2026-05-06 18:46 47.93520 -1.42891 36015 ft 443 kts 356°
2026-05-06 18:46 47.99669 -1.43354 36018 ft 443 kts 356°
2026-05-06 18:47 48.05826 -1.43812 36019 ft 443 kts 356°
2026-05-06 18:47 48.11955 -1.44597 36020 ft 441 kts 345°
2026-05-06 18:48 48.17905 -1.46820 36015 ft 441 kts 345°
2026-05-06 18:48 48.23857 -1.49092 36018 ft 441 kts 344°
2026-05-06 18:49 48.29806 -1.51391 36015 ft 442 kts 344°
2026-05-06 18:49 48.35765 -1.53694 36013 ft 442 kts 344°
2026-05-06 18:50 48.41727 -1.55990 36012 ft 442 kts 345°
2026-05-06 18:50 48.47692 -1.58289 36018 ft 443 kts 344°
2026-05-06 18:51 48.53660 -1.60594 36012 ft 443 kts 344°
2026-05-06 18:51 48.59633 -1.62916 36013 ft 443 kts 344°
2026-05-06 18:52 48.65601 -1.65239 36020 ft 443 kts 344°
2026-05-06 18:52 48.71577 -1.67572 36017 ft 443 kts 344°
2026-05-06 18:53 48.77552 -1.69909 36020 ft 443 kts 344°
2026-05-06 18:53 48.83518 -1.72250 36023 ft 443 kts 344°
2026-05-06 18:54 48.89501 -1.74542 36022 ft 444 kts 348°
2026-05-06 18:54 48.95664 -1.75019 36020 ft 445 kts
2026-05-06 18:55 49.01861 -1.74781 36014 ft 445 kts
2026-05-06 18:55 49.08059 -1.74548 36024 ft 446 kts
2026-05-06 18:56 49.14256 -1.74302 36025 ft 446 kts
2026-05-06 18:56 49.20456 -1.74066 36026 ft 446 kts
2026-05-06 18:57 49.26664 -1.73836 36029 ft 446 kts
2026-05-06 18:57 49.32876 -1.73594 36031 ft 446 kts
2026-05-06 18:58 49.39084 -1.73343 36027 ft 446 kts
2026-05-06 18:58 49.45296 -1.73112 36027 ft 447 kts 360°
2026-05-06 18:59 49.51509 -1.72872 36034 ft 447 kts 360°
2026-05-06 18:59 49.57731 -1.72570 36030 ft 448 kts
2026-05-06 19:00 49.63789 -1.70339 36025 ft 450 kts 18°
2026-05-06 19:00 49.69685 -1.67060 35866 ft 450 kts 18°
2026-05-06 19:00 49.71675 -1.65956 35696 ft 449 kts 18°
2026-05-06 19:01 49.75564 -1.63800 35282 ft 448 kts 18°
2026-05-06 19:01 49.77547 -1.62702 34821 ft 448 kts 18°
2026-05-06 19:01 49.80490 -1.61073 34089 ft 450 kts 18°
2026-05-06 19:01 49.83441 -1.59436 33195 ft 452 kts 18°
2026-05-06 19:02 49.86401 -1.57789 32397 ft 452 kts 18°
2026-05-06 19:02 49.89372 -1.56135 31488 ft 454 kts 18°
2026-05-06 19:02 49.92328 -1.54492 30986 ft 448 kts 18°
2026-05-06 19:02 49.95245 -1.52866 30427 ft 443 kts 18°
2026-05-06 19:03 49.98142 -1.51245 29856 ft 440 kts 18°
2026-05-06 19:03 50.00993 -1.49661 29291 ft 434 kts 17°
2026-05-06 19:03 50.03843 -1.48180 28756 ft 428 kts 16°
2026-05-06 19:03 50.06667 -1.46806 28220 ft 422 kts 15°
2026-05-06 19:04 50.09458 -1.45494 27692 ft 417 kts 15°
2026-05-06 19:04 50.12212 -1.44140 26979 ft 416 kts 20°
2026-05-06 19:04 50.14792 -1.41979 25882 ft 427 kts 31°
2026-05-06 19:04 50.17299 -1.39524 25479 ft 422 kts 31°
2026-05-06 19:05 50.19758 -1.37086 24850 ft 416 kts 31°
2026-05-06 19:05 50.22183 -1.34672 24370 ft 411 kts 31°
2026-05-06 19:05 50.24578 -1.32286 23885 ft 407 kts 31°
2026-05-06 19:05 50.26961 -1.29913 23406 ft 404 kts 31°
2026-05-06 19:06 50.29326 -1.27565 22848 ft 401 kts 31°
2026-05-06 19:06 50.31674 -1.25239 22300 ft 398 kts 31°
2026-05-06 19:06 50.34001 -1.22930 21764 ft 395 kts 31°
2026-05-06 19:06 50.36304 -1.20637 21238 ft 391 kts 31°
2026-05-06 19:07 50.38595 -1.18357 20723 ft 388 kts 31°
2026-05-06 19:07 50.40863 -1.16093 20215 ft 385 kts 31°
2026-05-06 19:07 50.43117 -1.13834 19725 ft 383 kts 31°
2026-05-06 19:07 50.45351 -1.11595 19232 ft 380 kts 31°
2026-05-06 19:08 50.47569 -1.09375 18736 ft 377 kts 31°
2026-05-06 19:08 50.49771 -1.07171 18259 ft 374 kts 31°
2026-05-06 19:08 50.51958 -1.04981 17715 ft 371 kts 31°
2026-05-06 19:08 50.54124 -1.02808 17176 ft 367 kts 31°
2026-05-06 19:09 50.56266 -1.00656 16645 ft 364 kts 31°
2026-05-06 19:09 50.58388 -0.98521 16125 ft 361 kts 31°
2026-05-06 19:09 50.60495 -0.96401 15614 ft 357 kts 31°
2026-05-06 19:09 50.62576 -0.94302 15104 ft 354 kts 31°
2026-05-06 19:10 50.64638 -0.92221 14633 ft 351 kts 31°
2026-05-06 19:10 50.66687 -0.90150 14138 ft 349 kts 31°
2026-05-06 19:10 50.68723 -0.88090 13642 ft 346 kts 31°
2026-05-06 19:10 50.70744 -0.86043 13112 ft 343 kts 31°
2026-05-06 19:11 50.72743 -0.84016 12976 ft 341 kts 31°
2026-05-06 19:11 50.74701 -0.82025 12990 ft 325 kts 31°
2026-05-06 19:11 50.76544 -0.80144 12993 ft 307 kts 31°
2026-05-06 19:11 50.78324 -0.78328 12997 ft 303 kts 32°
2026-05-06 19:12 50.79919 -0.76172 13006 ft 304 kts 47°
2026-05-06 19:12 50.81095 -0.73389 13000 ft 306 kts 63°
2026-05-06 19:12 50.81765 -0.70191 12845 ft 308 kts 77°
2026-05-06 19:12 50.82162 -0.66830 12212 ft 307 kts 78°
2026-05-06 19:13 50.82534 -0.63560 11645 ft 303 kts 78°
2026-05-06 19:13 50.82906 -0.60268 11215 ft 299 kts 78°
2026-05-06 19:13 50.83272 -0.57039 10840 ft 297 kts 78°
2026-05-06 19:13 50.83637 -0.53849 10467 ft 294 kts 78°
2026-05-06 19:14 50.84002 -0.50675 10092 ft 293 kts 78°
2026-05-06 19:14 50.84366 -0.47516 9707 ft 290 kts 78°
2026-05-06 19:14 50.84758 -0.44401 9323 ft 287 kts 71°
2026-05-06 19:14 50.85716 -0.41707 8923 ft 280 kts 44°
2026-05-06 19:15 50.87305 -0.40042 8500 ft 274 kts 17°
2026-05-06 19:15 50.89159 -0.39747 8090 ft 269 kts 349°
2026-05-06 19:15 50.90966 -0.40484 7679 ft 268 kts 342°
2026-05-06 19:15 50.92731 -0.41382 7277 ft 266 kts 341°
2026-05-06 19:16 50.94489 -0.42301 6875 ft 266 kts 341°
2026-05-06 19:16 50.96240 -0.43223 6497 ft 264 kts 341°
2026-05-06 19:16 50.97977 -0.44143 6109 ft 263 kts 341°
2026-05-06 19:16 50.99707 -0.45060 5700 ft 261 kts 341°
2026-05-06 19:17 51.01421 -0.45968 5286 ft 257 kts 341°
2026-05-06 19:17 51.03100 -0.46861 4934 ft 251 kts 341°
2026-05-06 19:17 51.04736 -0.47732 4595 ft 245 kts 341°
2026-05-06 19:17 51.06322 -0.48583 4324 ft 236 kts 341°
2026-05-06 19:18 51.07856 -0.49314 4082 ft 225 kts 353°
2026-05-06 19:18 51.09370 -0.48997 3825 ft 220 kts 24°
2026-05-06 19:18 51.10576 -0.47512 3618 ft 224 kts 52°
2026-05-06 19:18 51.11164 -0.45291 3365 ft 215 kts 75°
2026-05-06 19:19 51.11480 -0.43004 3083 ft 207 kts 75°
2026-05-06 19:19 51.11779 -0.40829 2818 ft 195 kts 75°
2026-05-06 19:19 51.12062 -0.38799 2553 ft 181 kts 75°
2026-05-06 19:19 51.12326 -0.36906 2318 ft 170 kts 75°
2026-05-06 19:20 51.12576 -0.35121 2095 ft 163 kts 74°
2026-05-06 19:20 51.12822 -0.33368 1869 ft 161 kts 75°
2026-05-06 19:20 51.13063 -0.31639 1652 ft 160 kts 74°
2026-05-06 19:20 51.13305 -0.29908 1419 ft 158 kts 75°
2026-05-06 19:21 51.13532 -0.28279 1198 ft 147 kts 74°
2026-05-06 19:21 51.13758 -0.26724 1016 ft 140 kts 73°
2026-05-06 19:21 51.13966 -0.25217 811 ft 140 kts 75°
2026-05-06 19:21 51.14171 -0.23706 639 ft 139 kts 76°
2026-05-06 19:22 51.14382 -0.22197 422 ft 138 kts 77°
2026-05-06 19:22 51.14583 -0.20712 269 ft 137 kts 78°
2026-05-06 19:22 51.14779 -0.19302 205 ft 115 kts 78°
2026-05-06 19:22 51.14911 -0.18331 204 ft 65 kts 77°
2026-05-06 19:23 51.14995 -0.17723 207 ft 48 kts 77°
2026-05-06 19:23 51.15051 -0.17394 215 ft 19 kts 65°
2026-05-06 19:23 51.15117 -0.17225 213 ft 11 kts 38°
2026-05-06 19:23 51.15184 -0.17247 214 ft 7 kts 326°
2026-05-06 19:24 51.15188 -0.17251 213 ft 0 kts 326°
2026-05-06 19:25 51.15192 -0.17255 204 ft 3 kts 325°
2026-05-06 19:25 51.15241 -0.17311 209 ft 11 kts 324°
2026-05-06 19:25 51.15298 -0.17328 208 ft 9 kts 42°
2026-05-06 19:26 51.15320 -0.17221 207 ft 11 kts 77°
2026-05-06 19:26 51.15337 -0.17097 208 ft 12 kts 77°
2026-05-06 19:26 51.15357 -0.16951 204 ft 14 kts 78°
2026-05-06 19:26 51.15378 -0.16795 214 ft 14 kts 78°
2026-05-06 19:27 51.15398 -0.16658 208 ft 12 kts 77°
2026-05-06 19:27 51.15412 -0.16555 206 ft 7 kts 77°
2026-05-06 19:27 51.15432 -0.16513 208 ft 3 kts 21°
2026-05-06 19:27 51.15447 -0.16515 207 ft 2 kts 354°
2026-05-06 19:28 51.15469 -0.16516 204 ft 4 kts 15°
2026-05-06 19:28 51.15484 -0.16462 204 ft 5 kts 78°
2026-05-06 19:28 51.15487 -0.16442 204 ft 1 kts 78°
2026-05-06 19:28 51.15488 -0.16437 208 ft 0 kts 78°
2026-05-06 19:39 51.15488 -0.16436 209 ft 0 kts 78°